Location: Newark
(57.7279°N, 5.6916°W)
Time: 04:18:00
(UTC+00:00)

N. Korean satellite - Pass Details

Date: 08 December 2019
Orbit: 454 x 508 km, 97.2° (Epoch: 18 January)

Event Time Altitude Azimuth Distance (km) Brightness Sun altitude
Rises 16:31:43 0° 147° (SSE) 2,609 10.3 -6.5°
Reaches altitude 10° 16:33:51 10° 141° (SE) 1,726 9.3 -6.7°
Maximum altitude 16:37:25 45° 68° (ENE) 699 6.9 -7.1°
Drops below altitude 10° 16:40:59 10° 355° (N) 1,722 9.1 -7.5°
Sets 16:43:06 0° 349° (N) 2,604 10.1 -7.8°
